Time,TemperatureF,DewpointF,PressureIn,WindDirection,WindDirectionDegrees,WindSpeedMPH,WindSpeedGustMPH,Humidity,HourlyPrecipIn,Conditions,Clouds,dailyrainin,SoftwareType,DateUTC
2013-03-04 00:14:00,53.4,46.0,30.06,WSW,245,6.0,14.0,77,0.00,,,0.00,weatherlink.com 1.10,2013-03-04 06:14:00,
2013-03-04 00:29:00,53.6,47.0,30.06,SSE,151,3.0,12.0,77,0.00,,,0.00,weatherlink.com 1.10,2013-03-04 06:29:00,
2013-03-04 00:44:00,53.6,47.0,30.06,South,174,6.0,10.0,78,0.00,,,0.00,weatherlink.com 1.10,2013-03-04 06:44:00,
2013-03-04 00:59:00,53.4,47.0,30.06,SSE,158,5.0,8.0,79,0.00,,,0.00,weatherlink.com 1.10,2013-03-04 06:59:00,
2013-03-04 01:14:00,53.3,47.0,30.05,South,190,2.0,9.0,80,0.00,,,0.00,weatherlink.com 1.10,2013-03-04 07:14:00,
2013-03-04 01:29:00,53.6,48.0,30.05,South,179,5.0,10.0,80,0.00,,,0.00,weatherlink.com 1.10,2013-03-04 07:29:00,
2013-03-04 01:44:00,53.7,48.0,30.05,SE,140,3.0,8.0,81,0.00,,,0.00,weatherlink.com 1.10,2013-03-04 07:44:00,
2013-03-04 01:59:00,54.0,48.0,30.04,SSW,203,6.0,9.0,81,0.00,,,0.00,weatherlink.com 1.10,2013-03-04 07:59:00,
2013-03-04 02:14:00,54.3,48.0,30.04,SSW,203,4.0,8.0,80,0.00,,,0.00,weatherlink.com 1.10,2013-03-04 08:14:00,
2013-03-04 02:29:00,54.3,49.0,30.03,South,172,5.0,9.0,81,0.00,,,0.00,weatherlink.com 1.10,2013-03-04 08:29:00,
2013-03-04 02:44:00,54.4,49.0,30.03,SSE,151,3.0,9.0,81,0.00,,,0.00,weatherlink.com 1.10,2013-03-04 08:44:00,
2013-03-04 02:59:00,54.5,49.0,30.02,SSW,200,4.0,10.0,81,0.00,,,0.00,weatherlink.com 1.10,2013-03-04 08:59:00,
2013-03-04 03:14:00,54.8,49.0,30.01,SSE,166,1.0,10.0,81,0.00,,,0.00,weatherlink.com 1.10,2013-03-04 09:14:00,
2013-03-04 03:29:00,55.2,49.0,30.02,South,187,3.0,10.0,81,0.00,,,0.00,weatherlink.com 1.10,2013-03-04 09:29:00,
2013-03-04 03:44:00,55.1,50.0,30.01,SE,146,5.0,9.0,82,0.00,,,0.00,weatherlink.com 1.10,2013-03-04 09:44:00,
2013-03-04 03:59:00,55.4,50.0,30.00,SSE,155,3.0,10.0,82,0.00,,,0.00,weatherlink.com 1.10,2013-03-04 09:59:00,
2013-03-04 04:14:00,55.7,50.0,30.00,SSE,163,4.0,10.0,82,0.00,,,0.00,weatherlink.com 1.10,2013-03-04 10:14:00,
2013-03-04 04:29:00,55.4,50.0,30.00,SE,139,2.0,8.0,83,0.00,,,0.00,weatherlink.com 1.10,2013-03-04 10:29:00,
2013-03-04 04:44:00,55.0,51.0,30.00,SSE,159,4.0,9.0,85,0.00,,,0.00,weatherlink.com 1.10,2013-03-04 10:44:00,
2013-03-04 04:59:00,54.9,51.0,29.99,SSE,163,5.0,9.0,86,0.00,,,0.00,weatherlink.com 1.10,2013-03-04 10:59:00,
2013-03-04 05:14:00,55.1,51.0,29.99,SE,133,3.0,11.0,87,0.00,,,0.00,weatherlink.com 1.10,2013-03-04 11:14:00,
2013-03-04 05:29:00,55.4,52.0,29.99,SSE,165,5.0,9.0,87,0.00,,,0.00,weatherlink.com 1.10,2013-03-04 11:29:00,
2013-03-04 05:44:00,55.4,52.0,29.99,SSE,148,5.0,9.0,88,0.00,,,0.00,weatherlink.com 1.10,2013-03-04 11:44:00,
2013-03-04 05:59:00,55.6,52.0,29.98,SW,219,3.0,11.0,88,0.00,,,0.00,weatherlink.com 1.10,2013-03-04 11:59:00,
2013-03-04 06:14:00,55.6,52.0,29.98,SSE,155,5.0,13.0,88,0.00,,,0.00,weatherlink.com 1.10,2013-03-04 12:14:00,
2013-03-04 06:29:00,56.0,53.0,29.98,SSE,167,2.0,15.0,89,0.00,,,0.00,weatherlink.com 1.10,2013-03-04 12:29:00,
2013-03-04 06:44:00,56.2,53.0,29.98,SSE,154,5.0,10.0,88,0.00,,,0.00,weatherlink.com 1.10,2013-03-04 12:44:00,
2013-03-04 06:59:00,56.7,53.0,29.97,SSE,162,3.0,12.0,88,0.00,,,0.00,weatherlink.com 1.10,2013-03-04 12:59:00,
2013-03-04 07:14:00,58.0,54.0,29.97,South,183,6.0,12.0,86,0.00,,,0.00,weatherlink.com 1.10,2013-03-04 13:14:00,
2013-03-04 07:29:00,59.1,55.0,29.98,SSW,212,4.0,14.0,85,0.00,,,0.00,weatherlink.com 1.10,2013-03-04 13:29:00,
2013-03-04 07:44:00,59.8,55.0,29.99,SSE,154,4.0,14.0,84,0.00,,,0.00,weatherlink.com 1.10,2013-03-04 13:44:00,
2013-03-04 07:59:00,60.8,56.0,29.99,SSW,207,6.0,12.0,83,0.00,,,0.00,weatherlink.com 1.10,2013-03-04 13:59:00,
2013-03-04 08:14:00,61.8,56.0,29.99,South,181,6.0,18.0,82,0.00,,,0.00,weatherlink.com 1.10,2013-03-04 14:14:00,
2013-03-04 08:29:00,63.0,57.0,29.99,SSW,212,7.0,19.0,80,0.00,,,0.00,weatherlink.com 1.10,2013-03-04 14:29:00,
2013-03-04 08:44:00,63.5,57.0,29.99,SW,224,12.0,19.0,80,0.00,,,0.00,weatherlink.com 1.10,2013-03-04 14:44:00,
2013-03-04 08:59:00,64.7,57.0,30.00,South,177,8.0,21.0,77,0.00,,,0.00,weatherlink.com 1.10,2013-03-04 14:59:00,
2013-03-04 09:14:00,65.2,57.0,29.99,South,188,7.0,22.0,76,0.00,,,0.00,weatherlink.com 1.10,2013-03-04 15:14:00,
2013-03-04 09:30:00,66.3,58.0,29.99,SW,225,7.0,20.0,74,0.00,,,0.00,weatherlink.com 1.10,2013-03-04 15:30:00,
2013-03-04 09:45:00,66.1,57.0,29.98,SSW,200,18.0,25.0,73,0.00,,,0.00,weatherlink.com 1.10,2013-03-04 15:45:00,
2013-03-04 10:00:00,67.2,58.0,29.98,SW,235,12.0,24.0,72,0.00,,,0.00,weatherlink.com 1.10,2013-03-04 16:00:00,
2013-03-04 10:15:00,67.7,58.0,29.98,SW,217,16.0,25.0,70,0.00,,,0.00,weatherlink.com 1.10,2013-03-04 16:15:00,
2013-03-04 10:30:00,67.7,58.0,29.98,SW,214,17.0,29.0,70,0.00,,,0.00,weatherlink.com 1.10,2013-03-04 16:30:00,
2013-03-04 10:45:00,68.2,58.0,29.97,South,174,9.0,31.0,70,0.00,,,0.00,weatherlink.com 1.10,2013-03-04 16:45:00,
2013-03-04 11:00:00,69.1,58.0,29.97,SW,218,15.0,32.0,68,0.00,,,0.00,weatherlink.com 1.10,2013-03-04 17:00:00,
2013-03-04 11:15:00,69.2,58.0,29.98,SW,232,20.0,27.0,68,0.00,,,0.00,weatherlink.com 1.10,2013-03-04 17:15:00,
2013-03-04 11:31:00,69.9,58.0,29.97,SSW,200,14.0,28.0,67,0.00,,,0.00,weatherlink.com 1.10,2013-03-04 17:31:00,
2013-03-04 11:45:00,70.2,58.0,29.97,SW,215,15.0,29.0,66,0.00,,,0.00,weatherlink.com 1.10,2013-03-04 17:45:00,
2013-03-04 12:01:00,70.5,59.0,29.96,SW,218,9.0,32.0,67,0.00,,,0.00,weatherlink.com 1.10,2013-03-04 18:01:00,
2013-03-04 12:16:00,70.4,58.0,29.95,SW,228,16.0,36.0,66,0.00,,,0.00,weatherlink.com 1.10,2013-03-04 18:16:00,
2013-03-04 12:31:00,70.6,58.0,29.94,SSW,207,21.0,32.0,65,0.00,,,0.00,weatherlink.com 1.10,2013-03-04 18:31:00,
2013-03-04 12:46:00,71.1,58.0,29.93,SW,226,21.0,33.0,64,0.00,,,0.00,weatherlink.com 1.10,2013-03-04 18:46:00,
2013-03-04 13:01:00,71.0,59.0,29.92,SW,232,20.0,33.0,66,0.00,,,0.00,weatherlink.com 1.10,2013-03-04 19:01:00,
2013-03-04 13:16:00,70.9,59.0,29.92,SW,217,27.0,28.0,66,0.00,,,0.00,weatherlink.com 1.10,2013-03-04 19:16:00,
2013-03-04 13:31:00,71.3,59.0,29.91,SW,219,27.0,31.0,66,0.00,,,0.00,weatherlink.com 1.10,2013-03-04 19:31:00,
2013-03-04 13:46:00,70.7,59.0,29.91,SW,218,23.0,28.0,67,0.00,,,0.00,weatherlink.com 1.10,2013-03-04 19:46:00,
2013-03-04 14:01:00,70.4,59.0,29.90,SW,232,22.0,32.0,67,0.00,,,0.00,weatherlink.com 1.10,2013-03-04 20:01:00,
2013-03-04 14:16:00,70.8,60.0,29.89,SW,232,11.0,28.0,68,0.00,,,0.00,weatherlink.com 1.10,2013-03-04 20:16:00,
2013-03-04 14:31:00,70.9,60.0,29.89,SW,235,16.0,25.0,68,0.00,,,0.00,weatherlink.com 1.10,2013-03-04 20:31:00,
2013-03-04 14:46:00,71.2,60.0,29.89,SSE,159,7.0,30.0,68,0.00,,,0.00,weatherlink.com 1.10,2013-03-04 20:46:00,
2013-03-04 15:01:00,71.5,60.0,29.89,SW,215,12.0,27.0,67,0.00,,,0.00,weatherlink.com 1.10,2013-03-04 21:01:00,
2013-03-04 15:16:00,71.2,60.0,29.88,SSW,197,21.0,27.0,67,0.00,,,0.00,weatherlink.com 1.10,2013-03-04 21:16:00,
2013-03-04 15:31:00,71.1,60.0,29.88,South,174,11.0,28.0,68,0.00,,,0.00,weatherlink.com 1.10,2013-03-04 21:31:00,
2013-03-04 15:46:00,70.9,60.0,29.87,SSE,160,21.0,25.0,69,0.00,,,0.00,weatherlink.com 1.10,2013-03-04 21:46:00,
2013-03-04 16:01:00,70.7,60.0,29.87,SSW,207,18.0,28.0,70,0.00,,,0.00,weatherlink.com 1.10,2013-03-04 22:01:00,
2013-03-04 16:16:00,70.5,60.0,29.87,SW,222,17.0,25.0,70,0.00,,,0.00,weatherlink.com 1.10,2013-03-04 22:16:00,
2013-03-04 16:31:00,70.5,60.0,29.86,SW,231,21.0,26.0,70,0.00,,,0.00,weatherlink.com 1.10,2013-03-04 22:31:00,
2013-03-04 16:46:00,70.3,61.0,29.86,SW,219,12.0,29.0,72,0.00,,,0.00,weatherlink.com 1.10,2013-03-04 22:46:00,
2013-03-04 17:01:00,69.7,61.0,29.86,SW,215,8.0,25.0,74,0.00,,,0.00,weatherlink.com 1.10,2013-03-04 23:01:00,
2013-03-04 17:16:00,69.0,61.0,29.86,SW,224,11.0,21.0,76,0.00,,,0.00,weatherlink.com 1.10,2013-03-04 23:16:00,
2013-03-04 17:31:00,68.5,61.0,29.86,SSW,202,6.0,19.0,77,0.00,,,0.00,weatherlink.com 1.10,2013-03-04 23:31:00,
2013-03-04 17:46:00,67.8,61.0,29.86,WSW,243,10.0,15.0,79,0.00,,,0.00,weatherlink.com 1.10,2013-03-04 23:46:00,
2013-03-04 18:01:00,67.3,61.0,29.86,WSW,244,4.0,15.0,80,0.00,,,0.00,weatherlink.com 1.10,2013-03-05 00:01:00,
2013-03-04 18:16:00,66.8,61.0,29.86,SSW,207,4.0,12.0,81,0.00,,,0.00,weatherlink.com 1.10,2013-03-05 00:16:00,
2013-03-04 18:30:00,66.4,61.0,29.86,South,169,10.0,15.0,82,0.00,,,0.00,weatherlink.com 1.10,2013-03-05 00:30:00,
2013-03-04 18:45:00,66.2,61.0,29.87,SW,228,5.0,12.0,83,0.00,,,0.00,weatherlink.com 1.10,2013-03-05 00:45:00,
2013-03-04 19:00:00,66.0,61.0,29.86,SW,219,7.0,12.0,83,0.00,,,0.00,weatherlink.com 1.10,2013-03-05 01:00:00,
2013-03-04 19:15:00,65.8,61.0,29.86,SW,235,6.0,14.0,84,0.00,,,0.00,weatherlink.com 1.10,2013-03-05 01:15:00,
2013-03-04 19:30:00,65.7,61.0,29.87,South,186,8.0,14.0,84,0.00,,,0.00,weatherlink.com 1.10,2013-03-05 01:30:00,
2013-03-04 19:45:00,65.5,61.0,29.86,SSW,204,5.0,15.0,85,0.00,,,0.00,weatherlink.com 1.10,2013-03-05 01:45:00,
2013-03-04 20:00:00,65.4,61.0,29.88,SW,228,9.0,13.0,85,0.00,,,0.00,weatherlink.com 1.10,2013-03-05 02:00:00,
2013-03-04 20:15:00,65.5,61.0,29.88,SW,226,6.0,8.0,85,0.00,,,0.00,weatherlink.com 1.10,2013-03-05 02:15:00,
2013-03-04 20:30:00,65.4,61.0,29.87,SSE,160,2.0,11.0,85,0.00,,,0.00,weatherlink.com 1.10,2013-03-05 02:30:00,
2013-03-04 20:45:00,65.4,61.0,29.88,South,179,4.0,16.0,85,0.00,,,0.00,weatherlink.com 1.10,2013-03-05 02:45:00,
2013-03-04 21:00:00,65.3,61.0,29.87,SSE,161,7.0,14.0,86,0.00,,,0.00,weatherlink.com 1.10,2013-03-05 03:00:00,
2013-03-04 21:15:00,65.1,61.0,29.88,SW,215,6.0,13.0,86,0.00,,,0.00,weatherlink.com 1.10,2013-03-05 03:15:00,
2013-03-04 21:29:00,65.1,61.0,29.89,SSE,161,6.0,13.0,86,0.00,,,0.00,weatherlink.com 1.10,2013-03-05 03:29:00,
2013-03-04 21:44:00,65.1,61.0,29.88,SSW,204,9.0,11.0,87,0.00,,,0.00,weatherlink.com 1.10,2013-03-05 03:44:00,
2013-03-04 21:59:00,65.2,61.0,29.89,SW,228,7.0,12.0,86,0.00,,,0.00,weatherlink.com 1.10,2013-03-05 03:59:00,
2013-03-04 22:15:00,65.2,61.0,29.89,SW,218,9.0,13.0,86,0.00,,,0.00,weatherlink.com 1.10,2013-03-05 04:15:00,
2013-03-04 22:30:00,64.9,61.0,29.88,SSE,149,7.0,15.0,87,0.00,,,0.00,weatherlink.com 1.10,2013-03-05 04:30:00,
2013-03-04 22:45:00,64.7,61.0,29.88,South,172,5.0,13.0,87,0.00,,,0.00,weatherlink.com 1.10,2013-03-05 04:45:00,
2013-03-04 23:00:00,64.5,61.0,29.88,South,188,2.0,10.0,88,0.00,,,0.00,weatherlink.com 1.10,2013-03-05 05:00:00,
2013-03-04 23:14:00,64.3,61.0,29.88,SSE,167,2.0,13.0,89,0.00,,,0.00,weatherlink.com 1.10,2013-03-05 05:14:00,
2013-03-04 23:29:00,64.3,61.0,29.88,SSE,159,3.0,9.0,89,0.00,,,0.00,weatherlink.com 1.10,2013-03-05 05:29:00,
2013-03-04 23:44:00,64.1,61.0,29.89,SW,230,3.0,7.0,89,0.00,,,0.00,weatherlink.com 1.10,2013-03-05 05:44:00,
2013-03-04 23:59:00,64.0,61.0,29.89,SW,216,3.0,9.0,89,0.00,,,0.00,weatherlink.com 1.10,2013-03-05 05:59:00,